Regional Weather Roundup
Issued by NWS

Home | Current Version | Previous Version | Text Only | Print | Product List | Glossary On
Versions: 1 2 3 4 5 6 7 8 9 10 11 12 13 14 15 16 17 18 19 20 21 22 23 24 25 26 27 28 29 30 31 32 33 34 35 36 37 38 39 40 41 42 43 44 45 46 47 48 49 50
000
ASUS45 KCYS 020410
RWRWY

WYOMING REGIONAL WEATHER ROUNDUP
NATIONAL WEATHER SERVICE CHEYENNE WY
1000 PM MDT WED JUL 01 2015

NOTE:  "FAIR" INDICATES FEW OR NO CLOUDS BELOW 12,000 FEET
WITH NO SIGNIFICANT WEATHER AND/OR OBSTRUCTIONS TO VISIBILITY.

WYZ001-020500-
YELLOWSTONE NATIONAL PARK

CITY           SKY/WX    TMP DP  RH WIND       PRES   REMARKS
LK YELLOWSTONE   N/A     59  42  53 NW3       30.33R
W YELLOWSTONE  NOT AVBL

$$
WYZ002>013-054>058-071-098>099-020500-
NORTHERN WYOMING

CITY           SKY/WX    TMP DP  RH WIND       PRES   REMARKS
JACKSON        FAIR      66  45  45 N5        30.19R
CODY           FAIR      73  48  40 NW10G20   30.15R
GREYBULL       FAIR      81  51  35 NW17      29.99R
WORLAND        LGT RAIN  72  55  55 NE13G28   30.01R
SHERIDAN       FAIR      68  56  65 SW7       30.15R
BUFFALO        CLOUDY    69  60  73 NE14      30.17R
GILLETTE       FAIR      63  53  70 N15G24    30.13R
HULETT         MOCLDY    64  61  88 NE7G25    30.12R
NEWCASTLE      NOT AVBL

$$
WYZ014>020-022>026-101>103-020500-
CENTRAL WYOMING

CITY           SKY/WX    TMP DP  RH WIND       PRES   REMARKS
BIG PINEY      FAIR      65  41  41 N13       30.23R
PINEDALE       FAIR      64  43  45 W9        30.24R
DUBOIS         FAIR      70  36  28 NW10      30.24R
LANDER         FAIR      73  51  46 MISG      30.12R
RIVERTON       FAIR      78  47  33 N20G25    30.10R
CASPER         FAIR      65  59  81 N5        30.08R
DOUGLAS        FAIR      66  60  81 E7        30.07S

$$
WYZ021-027>030-104>119-020500-
SOUTHERN WYOMING

CITY           SKY/WX    TMP DP  RH WIND       PRES   REMARKS
EVANSTON       FAIR      73  41  31 NW6       30.26R
KEMMERER       FAIR      68  45  42 N10       30.27R
FORT BRIDGER   CLEAR     73  41  31 NW7       30.27R
ROCK SPRINGS   MOCLDY    75  39  27 NW9       30.17R
DIXON          FAIR      64  54  68 NE12      30.20S
RAWLINS        FAIR      60  55  83 E9        30.20R
SARATOGA       FAIR      59  54  82 SE12      30.22S
LARAMIE        FAIR      57  53  86 S9        30.26F
CHEYENNE       FAIR      60  56  86 W8        30.21F
TORRINGTON     FAIR      68  59  73 E9        30.04S
PINE BLUFFS    FAIR      64  54  68 SW12      30.12R

$$


USA.gov is the U.S. government's official web portal to all federal, state and local government web resources and services.